FW5669 Weather Reports


Display with metric or nautical units.
time (UTC)temp
F
wind
direction
speed
MPH
gust
MPH
rain 1hr
in
rain 24hr
in
rain mn
in
humidity
%
barometer
mb
20260510014602 79 189 1.0 2.0 0.00 0.00 0.00 51 1012.8
20260510013000 80 196 0.0 2.0 0.00 0.00 0.00 54 1012.9
20260510011501 80 143 0.0 2.0 0.00 0.00 0.00 53 1012.9
20260510010002 81 179 0.0 2.0 0.00 0.00 0.00 50 1013.0
20260510004600 81 158 0.0 2.0 0.00 0.00 0.00 52 1013.1
20260510004501 81 158 0.0 2.0 0.00 0.00 0.00 51 1013.1
20260510003107 81 149 0.0 3.0 0.00 0.00 0.00 54 1013.1
20260510003002 81 177 0.0 3.0 0.00 0.00 0.00 53 1013.1
20260510001502 81 158 0.0 3.0 0.00 0.00 0.00 53 1013.2
20260510000006 81 132 1.0 3.0 0.00 0.00 0.00 50 1013.4
20260509234502 81 158 1.0 3.0 0.00 0.00 0.00 50 1013.5
20260509233003 80 273 1.0 5.0 0.00 0.00 0.00 53 1013.5
20260509231500 81 133 1.0 3.0 0.00 0.00 0.00 54 1013.6
20260509230002 81 150 1.0 4.0 0.00 0.00 0.00 53 1013.9
20260509224603 81 253 1.0 4.0 0.00 0.00 0.00 54 1013.8
20260509223003 81 203 1.0 4.0 0.00 0.00 0.00 52 1013.9
20260509221502 81 316 1.0 3.0 0.00 0.00 0.00 54 1014.1
20260509220001 81 233 0.0 5.0 0.00 0.00 0.00 53 1014.1
20260509214600 80 235 1.0 6.0 0.00 0.00 0.00 54 1014.4
20260509213101 80 44 1.0 4.0 0.00 0.00 0.00 52 1015.0
20260509211600 80 273 1.0 3.0 0.00 0.00 0.00 55 1014.7
20260509210105 79 177 1.0 3.0 0.00 0.00 0.00 56 1014.7
20260509204608 79 260 1.0 3.0 0.00 0.00 0.00 57 1014.8
20260509203115 79 178 1.0 3.0 0.00 0.00 0.00 58 1014.7
20260509201600 78 158 1.0 3.0 0.00 0.00 0.00 57 1014.9
20260509200100 78 236 1.0 3.0 0.00 0.00 0.00 58 1015.0
20260509200002 78 224 0.0 3.0 0.00 0.00 0.00 59 1015.0
20260509194501 77 139 2.0 5.0 0.00 0.00 0.00 63 1015.1
20260509193006 77 171 1.0 4.0 0.00 0.00 0.00 59 1015.3
20260509191601 76 283 1.0 3.0 0.00 0.00 0.00 59 1015.4
20260509191500 76 160 0.0 3.0 0.00 0.00 0.00 60 1015.5
20260509190008 76 209 1.0 4.0 0.00 0.00 0.00 60 1015.6
20260509184602 76 172 0.0 3.0 0.00 0.00 0.00 61 1015.9
20260509183113 75 212 0.0 3.0 0.00 0.00 0.00 62 1015.9
20260509181611 74 222 1.0 4.0 0.00 0.00 0.00 62 1015.8
20260509180001 74 204 0.0 3.0 0.00 0.00 0.00 62 1015.8
20260509174559 73 185 0.0 3.0 0.00 0.00 0.00 63 1015.9
20260509173110 73 164 2.0 4.0 0.00 0.00 0.00 62 1015.8
20260509171600 73 212 0.0 4.0 0.00 0.00 0.00 65 1016.0
20260509170100 73 243 0.0 3.0 0.00 0.00 0.00 65 1015.9
20260509170002 73 198 0.0 3.0 0.00 0.00 0.00 63 1015.9
20260509164600 73 220 1.0 3.0 0.00 0.00 0.00 63 1015.8
20260509163101 72 227 0.0 2.0 0.00 0.00 0.00 65 1015.6
20260509161604 72 226 0.0 2.0 0.00 0.00 0.00 64 1015.7
20260509160005 73 138 0.0 1.0 0.00 0.00 0.00 64 1015.9
20260509154614 71 353 0.0 1.0 0.00 0.00 0.00 64 1015.8
20260509153110 69 351 0.0 1.0 0.00 0.00 0.00 70 1015.8
20260509151612 67 320 0.0 2.0 0.00 0.00 0.00 74 1016.0
20260509150002 64 38 0.0 1.0 0.00 0.00 0.00 74 1016.0
20260509144602 62 51 0.0 2.0 0.00 0.00 0.00 77 1015.8
20260509143110 60 47 0.0 0.0 0.00 0.00 0.00 82 1015.6
20260509141600 56 55 0.0 0.0 0.00 0.00 0.00 87 1015.6
20260509140002 55 49 0.0 0.0 0.00 0.00 0.00 90 1015.6
20260509134601 53 7 0.0 0.0 0.00 0.00 0.00 92 1015.5
20260509133001 53 7 0.0 0.0 0.00 0.00 0.00 92 1015.6
20260509131600 53 7 0.0 0.0 0.00 0.00 0.00 91 1015.6
20260509130115 54 355 0.0 0.0 0.00 0.00 0.00 91 1015.6
20260509130002 54 355 0.0 0.0 0.00 0.00 0.00 91 1015.5
20260509124600 54 355 0.0 0.0 0.00 0.00 0.00 91 1015.4
20260509123003 54 355 0.0 0.0 0.00 0.00 0.00 91 1015.3
20260509121501 54 355 0.0 0.0 0.00 0.00 0.00 90 1015.3
20260509120002 55 355 0.0 0.0 0.00 0.00 0.00 90 1015.4
20260509114600 55 355 0.0 0.0 0.00 0.00 0.00 91 1015.2
20260509113101 55 355 0.0 0.0 0.00 0.00 0.00 91 1015.3
20260509111612 55 355 0.0 0.0 0.00 0.00 0.00 91 1015.2
20260509111502 55 355 0.0 0.0 0.00 0.00 0.00 91 1015.3
20260509110101 55 355 0.0 0.0 0.00 0.00 0.00 91 1015.4
20260509110001 55 355 0.0 0.0 0.00 0.00 0.00 91 1015.4
20260509104611 55 355 0.0 0.0 0.00 0.00 0.00 91 1015.5
20260509103111 55 355 0.0 0.0 0.00 0.00 0.00 91 1015.5
20260509101600 55 355 0.0 0.0 0.00 0.00 0.00 91 1015.7
20260509101502 55 355 0.0 0.0 0.00 0.00 0.00 91 1015.7
20260509100005 55 355 0.0 0.0 0.00 0.00 0.00 91 1015.8
20260509094602 55 355 0.0 0.0 0.00 0.00 0.00 91 1015.8
20260509093103 55 355 0.0 0.0 0.00 0.00 0.00 91 1015.8
20260509093001 55 355 0.0 0.0 0.00 0.00 0.00 91 1015.9
20260509091600 55 355 0.0 0.0 0.00 0.00 0.00 91 1016.0
20260509090106 56 355 0.0 0.0 0.00 0.00 0.00 91 1016.1
20260509090001 56 355 0.0 0.0 0.00 0.00 0.00 91 1016.1
20260509084608 56 355 0.0 0.0 0.00 0.00 0.00 91 1016.0
20260509083059 56 355 0.0 0.0 0.00 0.00 0.00 91 1016.1
20260509081600 56 355 0.0 0.0 0.00 0.00 0.00 90 1016.3
20260509080001 56 355 0.0 0.0 0.00 0.00 0.00 90 1016.4
20260509074501 57 355 0.0 0.0 0.00 0.00 0.00 90 1016.4
20260509073003 57 355 0.0 0.0 0.00 0.00 0.00 90 1016.5
20260509071501 57 355 0.0 0.0 0.00 0.00 0.00 90 1016.4
20260509070003 57 355 0.0 0.0 0.00 0.00 0.00 89 1016.1
20260509064603 58 355 0.0 0.0 0.00 0.00 0.00 88 1016.1
20260509064501 58 355 0.0 0.0 0.00 0.00 0.00 89 1016.2
20260509063000 58 355 0.0 0.0 0.00 0.00 0.00 88 1016.4
20260509061501 59 355 0.0 0.0 0.00 0.00 0.00 88 1016.3
20260509060002 59 355 0.0 0.0 0.00 0.00 0.00 87 1016.3
20260509054600 60 172 0.0 0.0 0.00 0.00 0.00 87 1016.5
20260509054501 60 172 0.0 0.0 0.00 0.00 0.00 86 1016.5
20260509053103 60 346 0.0 0.0 0.00 0.00 0.00 86 1016.4
20260509051602 60 346 0.0 0.0 0.00 0.00 0.00 86 1016.3
20260509050101 61 346 0.0 0.0 0.00 0.00 0.00 86 1016.4
20260509050001 61 346 0.0 0.0 0.00 0.00 0.00 86 1016.4
20260509044600 61 346 0.0 0.0 0.00 0.00 0.00 85 1016.4
20260509043100 62 346 0.0 0.0 0.00 0.00 0.00 84 1016.0
20260509043001 62 346 0.0 0.0 0.00 0.00 0.00 84 1016.0
20260509041600 63 346 0.0 0.0 0.00 0.00 0.00 83 1015.9
20260509041501 63 324 0.0 0.0 0.00 0.00 0.00 83 1015.9
20260509040001 64 260 0.0 0.0 0.00 0.00 0.00 81 1015.9
20260509034601 65 260 0.0 0.0 0.00 0.00 0.00 79 1015.8
20260509033102 67 260 0.0 0.0 0.00 0.00 0.00 75 1015.8
20260509031600 69 260 0.0 0.0 0.00 0.00 0.00 71 1015.8
20260509030101 70 260 0.0 0.0 0.00 0.00 0.00 67 1015.6
20260509030002 71 260 0.0 0.0 0.00 0.00 0.00 67 1015.6
20260509024603 72 260 0.0 0.0 0.00 0.00 0.00 64 1015.6
20260509023107 74 260 0.0 0.0 0.00 0.00 0.00 61 1015.6
20260509023000 74 260 0.0 0.0 0.00 0.00 0.00 61 1015.6
20260509021601 75 260 0.0 0.0 0.00 0.00 0.00 57 1015.5
20260509020002 76 260 0.0 1.0 0.00 0.00 0.00 53 1015.6